Voltar ao catálogo

COSMOS 1275 DEB

AtivoPO
NORAD 12963·DEBRIS·🇷🇺 Russia

Lançado Jun 4, 1981 de Plesetsk Cosmodrome

Loading…

Próximas Passagens (próximas 24 horas)

TLE

AtualizadoSource: Space-Track

Época: Sep 14, 2026, 01:52 UTC

1 12963U 81053EJ  26257.07847078  .00000301  00000-0  25918-3 0  9993
2 12963  82.9420 105.8584 0023863 330.0062 154.0334 13.83383495258142

Acompanhe COSMOS 1275 DEB em tempo real com AllMySat

Download on the App Store